Sussex, NJ

8:17 PM EDT on June 26, 2017 (GMT -0400)
Sussex

Weather History for KFWN - October, 2012

Change the Weather History Date:

Saturday, October 27, 2012

  Actual Average Record
Temperature  
Mean Temperature 58 °F -  
Max Temperature 63 °F 58 °F 83 °F (1963)
Min Temperature 54 °F 35 °F 22 °F (1988)
Degree Days  
Heating Degree Days 6    
Growing Degree Days 8 (Base 50)    
Moisture  
Dew Point 54 °F    
Average Humidity 86    
Maximum Humidity 94    
Minimum Humidity 72    
Precipitation  
Precipitation 0.00 in - - ()
Sea Level Pressure  
Sea Level Pressure 30.01 in    
Wind  
Wind Speed 1 mph (NNE)    
Max Wind Speed 6 mph    
Max Gust Speed -    
Visibility 6 miles    
Events      
Averages and records for this station are not official NWS values.
T = Trace of Precipitation, MM = Missing Value Source: NWS Daily Summary

Daily Weather History Graph

Daily Weather History Graph

Search for Another Location

Airport or City:

Trip Planner

Search our weather history database for the weather conditions in past years. The results will help you decide how hot, cold, wet, or windy it might be!

Date:

Astronomy

Oct. 27, 2012 Rise Set
Actual Time 7:24 AM EDT 5:59 PM EDT
Civil Twilight 6:55 AM EDT 6:28 PM EDT
Nautical Twilight 6:23 AM EDT 7:00 PM EDT
Astronomical Twilight 5:51 AM EDT 7:32 PM EDT
Moon 4:45 PM EDT 5:16 AM EDT
Length of Visible Light 11h 32m
Length of Day
10h 35m
Waxing Gibbous, 96% of the Moon is Illuminated
Oct 27
Waxing Gibbous
Oct 29
Full
Nov 6
Last Quarter
Nov 13
New
Nov 20
First Quarter

Hourly Weather History & Observations

Time (EDT) Temp. Dew Point Humidity Pressure Visibility Wind Dir Wind Speed Gust Speed Precip Events Conditions
12:53 AM 57.9 °F 55.0 °F 90% 30.11 in 6.0 mi Calm Calm - N/A   Overcast
1:53 AM 57.9 °F 55.0 °F 90% 30.09 in 5.0 mi East 4.6 mph - N/A   Overcast
2:21 AM 57.2 °F 55.4 °F 94% 30.08 in 5.0 mi Calm Calm - N/A   Overcast
2:53 AM 57.9 °F 55.0 °F 90% 30.07 in 6.0 mi Calm Calm - N/A   Overcast
3:53 AM 57.9 °F 55.0 °F 90% 30.05 in 5.0 mi Calm Calm - N/A   Overcast
4:53 AM 57.0 °F 55.0 °F 93% 30.04 in 4.0 mi Calm Calm - N/A   Overcast
5:18 AM 57.2 °F 55.4 °F 94% 30.03 in 4.0 mi Calm Calm - N/A   Overcast
5:53 AM 55.9 °F 54.0 °F 93% 30.03 in 3.0 mi Calm Calm - N/A   Overcast
6:17 AM 55.4 °F 53.6 °F 94% 30.04 in 4.0 mi Calm Calm - N/A   Overcast
6:53 AM 55.9 °F 54.0 °F 93% 30.04 in 4.0 mi Calm Calm - N/A   Overcast
7:53 AM 55.9 °F 54.0 °F 93% 30.04 in 4.0 mi Calm Calm - N/A   Overcast
8:17 AM 57.2 °F 53.6 °F 88% 30.05 in 4.0 mi Calm Calm - N/A   Overcast
8:53 AM 57.9 °F 55.0 °F 90% 30.04 in 3.0 mi Calm Calm - N/A   Overcast
9:53 AM 59.0 °F 54.0 °F 83% 30.05 in 5.0 mi NNE 3.5 mph - N/A   Haze
10:53 AM 60.1 °F 54.0 °F 80% 30.04 in 4.0 mi North 3.5 mph - N/A   Haze
11:04 AM 60.8 °F 55.4 °F 82% 30.04 in 4.0 mi Calm Calm - N/A   Haze
11:22 AM 60.8 °F 55.4 °F 82% 30.03 in 5.0 mi NNE 3.5 mph - N/A   Haze
11:53 AM 61.0 °F 55.0 °F 81% 30.03 in 6.0 mi NE 3.5 mph - N/A   Haze
12:37 PM 60.8 °F 55.4 °F 82% 30.01 in 6.0 mi Calm Calm - N/A   Haze
12:53 PM 62.1 °F 55.0 °F 78% 30.01 in 6.0 mi Variable 3.5 mph - N/A   Haze
1:05 PM 62.6 °F 55.4 °F 77% 30.00 in 6.0 mi NNE 3.5 mph - N/A   Haze
1:53 PM 61.0 °F 54.0 °F 78% 29.98 in 6.0 mi NNE 5.8 mph - N/A   Haze
2:22 PM 62.6 °F 53.6 °F 72% 29.98 in 6.0 mi Calm Calm - N/A   Haze
2:53 PM 62.1 °F 55.0 °F 78% 29.97 in 7.0 mi North 3.5 mph - N/A   Overcast
3:53 PM 63.0 °F 54.0 °F 72% 29.96 in 8.0 mi NNE 5.8 mph - N/A   Mostly Cloudy
4:53 PM 62.1 °F 54.0 °F 75% 29.96 in 8.0 mi NNE 3.5 mph - N/A   Mostly Cloudy
5:53 PM 61.0 °F 54.0 °F 78% 29.96 in 9.0 mi NNE 5.8 mph - N/A   Mostly Cloudy
6:53 PM 60.1 °F 54.0 °F 80% 29.97 in 9.0 mi NNE 3.5 mph - N/A   Mostly Cloudy
7:53 PM 57.0 °F 53.1 °F 87% 29.96 in 9.0 mi Calm Calm - N/A   Clear
8:53 PM 55.0 °F 52.0 °F 89% 29.96 in 7.0 mi Calm Calm - N/A   Clear
9:53 PM 54.0 °F 52.0 °F 93% 29.95 in 6.0 mi Calm Calm - N/A   Clear
10:53 PM 54.0 °F 52.0 °F 93% 29.95 in 5.0 mi Calm Calm - N/A   Clear
11:53 PM 55.9 °F 53.1 °F 90% 29.94 in 8.0 mi NE 4.6 mph - N/A   Clear